�������l�o���
Date,Time,MP-1(��Sv/h),MP-2(��Sv/h),MP-3(��Sv/h),MP-4(��Sv/h),MP-5(��Sv/h),MP-6(��Sv/h),MP-7(��Sv/h),MP-8(��Sv/h),����,����(m/s),���J
2017/10/27,00:00,0.897,1.426,0.894,1.713,1.157,0.497,0.905,0.842,��,3.8,��
2017/10/27,00:10,0.895,1.425,0.897,1.713,1.158,0.497,0.905,0.843,��쓌,4.0,��
2017/10/27,00:20,0.896,1.425,0.896,1.711,1.154,0.498,0.905,0.839,��,3.9,��
2017/10/27,00:30,0.897,1.426,0.895,1.712,1.155,0.497,0.906,0.839,��,4.3,��
2017/10/27,00:40,0.898,1.428,0.897,1.710,1.154,0.498,0.905,0.840,��쐼,3.4,��
2017/10/27,00:50,0.895,1.426,0.897,1.712,1.155,0.497,0.906,0.843,��쐼,3.6,��
2017/10/27,01:00,0.897,1.426,0.897,1.712,1.154,0.497,0.905,0.841,��쐼,4.0,��
2017/10/27,01:10,0.897,1.424,0.898,1.712,1.153,0.497,0.906,0.843,��쐼,4.3,��
2017/10/27,01:20,0.896,1.426,0.897,1.711,1.156,0.496,0.906,0.842,��쐼,4.2,��
2017/10/27,01:30,0.894,1.426,0.897,1.711,1.156,0.496,0.906,0.840,��쐼,4.4,��
2017/10/27,01:40,0.893,1.426,0.897,1.712,1.156,0.497,0.906,0.841,��쐼,3.5,��
2017/10/27,01:50,0.894,1.426,0.896,1.712,1.154,0.498,0.906,0.841,��쐼,3.6,��
2017/10/27,02:00,0.897,1.427,0.898,1.715,1.154,0.495,0.905,0.841,�쐼,3.2,��
2017/10/27,02:10,0.896,1.426,0.897,1.715,1.156,0.497,0.905,0.842,���쐼,2.5,��
2017/10/27,02:20,0.897,1.424,0.898,1.711,1.153,0.497,0.905,0.842,��,2.3,��
2017/10/27,02:30,0.896,1.426,0.899,1.710,1.155,0.497,0.904,0.843,���k��,1.4,��
2017/10/27,02:40,0.895,1.424,0.896,1.711,1.155,0.497,0.909,0.842,�k,0.9,��
2017/10/27,02:50,0.894,1.427,0.898,1.713,1.155,0.498,0.904,0.841,�k�k��,1.2,��
2017/10/27,03:00,0.897,1.425,0.897,1.710,1.156,0.500,0.905,0.841,�k��,0.6,��
2017/10/27,03:10,0.896,1.427,0.897,1.712,1.154,0.497,0.905,0.843,���쐼,0.6,��
2017/10/27,03:20,0.896,1.425,0.897,1.714,1.154,0.496,0.906,0.841,���쐼,0.6,��
2017/10/27,03:30,0.896,1.425,0.899,1.715,1.155,0.497,0.907,0.841,���k��,1.2,��
2017/10/27,03:40,0.896,1.424,0.897,1.713,1.155,0.498,0.906,0.841,���k��,2.0,��
2017/10/27,03:50,0.897,1.426,0.897,1.713,1.155,0.497,0.908,0.843,���k��,1.9,��
2017/10/27,04:00,0.896,1.423,0.896,1.711,1.155,0.497,0.906,0.843,�k�k��,1.4,��
2017/10/27,04:10,0.897,1.425,0.896,1.714,1.155,0.496,0.905,0.842,�k�k��,4.3,��
2017/10/27,04:20,0.897,1.425,0.897,1.714,1.157,0.496,0.907,0.842,�k�k��,3.7,��
2017/10/27,04:30,0.895,1.425,0.896,1.713,1.154,0.498,0.907,0.841,�k,2.9,��
2017/10/27,04:40,0.898,1.426,0.899,1.712,1.156,0.498,0.905,0.842,�k�k��,4.0,��
2017/10/27,04:50,0.896,1.424,0.896,1.711,1.155,0.498,0.906,0.842,�k�k��,3.6,��
2017/10/27,05:00,0.896,1.425,0.897,1.713,1.155,0.496,0.907,0.840,�k�k��,3.1,��
2017/10/27,05:10,0.894,1.424,0.899,1.711,1.155,0.497,0.906,0.842,�k�k��,2.9,��
2017/10/27,05:20,0.895,1.425,0.896,1.713,1.154,0.497,0.907,0.841,�k�k��,2.6,��
2017/10/27,05:30,0.895,1.423,0.897,1.712,1.153,0.496,0.906,0.842,�k�k��,2.0,��
2017/10/27,05:40,0.895,1.423,0.896,1.711,1.152,0.497,0.904,0.842,�k�k��,2.5,��
2017/10/27,05:50,0.895,1.423,0.899,1.712,1.154,0.495,0.905,0.842,�k��,2.8,��
2017/10/27,06:00,0.895,1.423,0.897,1.712,1.155,0.496,0.907,0.844,�k��,3.4,��
2017/10/27,06:10,0.894,1.424,0.897,1.714,1.152,0.497,0.906,0.842,�k�k��,2.8,��
2017/10/27,06:20,0.896,1.426,0.894,1.713,1.155,0.497,0.907,0.841,�k�k��,3.4,��
2017/10/27,06:30,0.895,1.425,0.896,1.710,1.154,0.495,0.906,0.842,�k��,1.9,��
2017/10/27,06:40,0.895,1.426,0.896,1.714,1.157,0.495,0.906,0.842,�k�k��,2.6,��
2017/10/27,06:50,0.897,1.425,0.897,1.714,1.153,0.496,0.907,0.841,�k�k��,2.3,��
2017/10/27,07:00,0.897,1.423,0.897,1.711,1.155,0.499,0.906,0.842,�k��,2.6,��
2017/10/27,07:10,0.897,1.423,0.896,1.710,1.153,0.495,0.904,0.842,�k��,2.2,��
2017/10/27,07:20,0.896,1.425,0.898,1.710,1.155,0.495,0.907,0.842,�k�k��,2.0,��
2017/10/27,07:30,0.896,1.426,0.899,1.713,1.155,0.495,0.908,0.843,�k�k��,2.9,��
2017/10/27,07:40,0.898,1.425,0.897,1.715,1.153,0.496,0.907,0.842,�k�k��,1.7,��
2017/10/27,07:50,0.897,1.427,0.898,1.713,1.155,0.497,0.907,0.841,�k��,2.2,��
2017/10/27,08:00,0.898,1.427,0.897,1.715,1.154,0.497,0.907,0.842,�k�k��,2.0,��
2017/10/27,08:10,0.897,1.428,0.897,1.718,1.156,0.497,0.908,0.843,�k�k��,2.9,��
2017/10/27,08:20,0.897,1.428,0.898,1.717,1.156,0.497,0.908,0.843,�k�k��,3.0,��
2017/10/27,08:30,0.897,1.428,0.900,1.715,1.158,0.496,0.907,0.841,�k�k��,3.1,��
2017/10/27,08:40,0.898,1.428,0.900,1.718,1.156,0.496,0.907,0.843,�k��,2.6,��
2017/10/27,08:50,0.899,1.423,0.899,1.715,1.157,0.495,0.908,0.843,�k,1.5,��
2017/10/27,09:00,0.899,1.427,0.901,1.713,1.156,0.495,0.908,0.842,�k�k��,2.0,��
2017/10/27,09:10,0.897,1.425,0.900,1.717,1.153,0.496,0.907,0.844,��,2.0,��
2017/10/27,09:20,0.899,1.425,0.899,1.711,1.156,0.497,0.906,0.842,�k,1.2,��
2017/10/27,09:30,0.900,1.427,0.902,1.711,1.158,0.498,0.907,0.845,���k��,1.1,��
2017/10/27,09:40,0.898,1.425,0.900,1.713,1.162,0.497,0.906,0.844,�k��,0.9,��
2017/10/27,09:50,0.898,1.427,0.903,1.712,1.157,0.496,0.907,0.844,��,2.0,��
2017/10/27,10:00,0.898,1.424,0.900,1.711,1.156,0.495,0.906,0.845,�k��,2.6,��
2017/10/27,10:10,0.898,1.426,0.900,1.711,1.155,0.495,0.908,0.843,���k��,2.0,��
2017/10/27,10:20,0.898,1.428,0.900,1.708,1.158,0.496,0.906,0.843,���k��,2.0,��
2017/10/27,10:30,0.899,1.428,0.900,1.708,1.159,0.495,0.906,0.843,�k��,2.3,��
2017/10/27,10:40,0.899,1.427,0.899,1.711,1.159,0.496,0.907,0.845,�k��,1.7,��
2017/10/27,10:50,0.899,1.426,0.898,1.710,1.157,0.497,0.909,0.842,�k�k��,2.3,��
2017/10/27,11:00,0.897,1.428,0.898,1.711,1.158,0.496,0.908,0.843,�k��,2.0,��
2017/10/27,11:10,0.898,1.428,0.900,1.709,1.159,0.498,0.907,0.843,�k��,2.2,��
2017/10/27,11:20,0.898,1.428,0.898,1.709,1.161,0.495,0.908,0.845,���k��,2.8,��
2017/10/27,11:30,0.898,1.428,0.899,1.709,1.159,0.494,0.906,0.844,��,3.0,��
2017/10/27,11:40,0.898,1.430,0.899,1.712,1.160,0.496,0.907,0.844,���k��,2.6,��
2017/10/27,11:50,0.900,1.432,0.900,1.711,1.162,0.498,0.908,0.845,�k��,3.3,��
2017/10/27,12:00,0.900,1.429,0.903,1.708,1.159,0.499,0.907,0.846,�k��,3.4,��
2017/10/27,12:10,0.901,1.434,0.900,1.712,1.162,0.497,0.908,0.844,�k��,3.0,��
2017/10/27,12:20,0.898,1.431,0.902,1.713,1.162,0.500,0.909,0.843,�k��,2.9,��
2017/10/27,12:30,0.899,1.435,0.903,1.712,1.164,0.499,0.908,0.842,���k��,2.6,��
2017/10/27,12:40,0.901,1.432,0.902,1.713,1.161,0.498,0.907,0.844,�k��,3.1,��
2017/10/27,12:50,0.901,1.434,0.901,1.714,1.161,0.499,0.907,0.841,�k��,2.5,��
2017/10/27,13:00,0.900,1.433,0.901,1.714,1.162,0.500,0.908,0.842,���k��,2.3,��
2017/10/27,13:10,0.900,1.431,0.900,1.710,1.163,0.498,0.910,0.842,���k��,2.6,��
2017/10/27,13:20,0.900,1.430,0.901,1.711,1.164,0.500,0.907,0.842,���k��,3.0,��
2017/10/27,13:30,0.900,1.434,0.902,1.714,1.163,0.500,0.909,0.841,�k��,3.1,��
2017/10/27,13:40,0.900,1.432,0.902,1.713,1.162,0.499,0.907,0.842,���k��,2.6,��
2017/10/27,13:50,0.901,1.435,0.902,1.712,1.163,0.498,0.909,0.843,���k��,2.6,��
2017/10/27,14:00,0.902,1.432,0.902,1.712,1.164,0.499,0.907,0.844,�k��,2.6,��
2017/10/27,14:10,0.903,1.432,0.902,1.713,1.165,0.498,0.908,0.842,���k��,2.5,��
2017/10/27,14:20,0.903,1.429,0.903,1.715,1.164,0.497,0.907,0.841,��,2.6,��
2017/10/27,14:30,0.901,1.430,0.902,1.715,1.162,0.499,0.908,0.841,���k��,2.3,��
2017/10/27,14:40,0.900,1.431,0.903,1.713,1.161,0.498,0.909,0.841,�k��,2.6,��
2017/10/27,14:50,0.900,1.436,0.904,1.713,1.162,0.497,0.910,0.842,�k��,2.3,��
2017/10/27,15:00,0.901,1.436,0.900,1.714,1.163,0.499,0.909,0.843,���k��,2.0,��
2017/10/27,15:10,0.900,1.432,0.902,1.714,1.165,0.497,0.909,0.842,���k��,2.0,��
2017/10/27,15:20,0.902,1.433,0.902,1.717,1.163,0.498,0.910,0.843,�k��,1.7,��
2017/10/27,15:30,0.899,1.432,0.901,1.712,1.167,0.498,0.909,0.842,���k��,2.2,��
2017/10/27,15:40,0.900,1.436,0.901,1.714,1.164,0.499,0.910,0.843,��,1.5,��
2017/10/27,15:50,0.901,1.437,0.901,1.711,1.164,0.499,0.910,0.844,��,1.5,��
2017/10/27,16:00,0.900,1.436,0.903,1.715,1.165,0.499,0.910,0.845,���쓌,1.5,��
2017/10/27,16:10,0.900,1.434,0.902,1.713,1.162,0.502,0.908,0.846,���k��,1.2,��
2017/10/27,16:20,0.900,1.437,0.902,1.712,1.161,0.501,0.910,0.844,���쓌,1.5,��
2017/10/27,16:30,0.899,1.438,0.901,1.711,1.161,0.500,0.909,0.846,�쓌,1.4,��
2017/10/27,16:40,0.899,1.438,0.902,1.715,1.163,0.500,0.911,0.845,��,1.1,��
2017/10/27,16:50,0.901,1.438,0.903,1.712,1.161,0.499,0.910,0.843,��쓌,1.4,��
2017/10/27,17:00,0.902,1.439,0.903,1.713,1.164,0.500,0.911,0.844,���쓌,0.9,��
2017/10/27,17:10,0.903,1.440,0.904,1.714,1.167,0.499,0.909,0.843,�쓌,1.1,��
2017/10/27,17:20,0.902,1.436,0.906,1.712,1.169,0.500,0.909,0.844,���쓌,0.6,��
2017/10/27,17:30,0.902,1.436,0.903,1.711,1.165,0.499,0.910,0.844,�쓌,0.9,��
2017/10/27,17:40,0.900,1.440,0.903,1.710,1.168,0.499,0.910,0.843,���쓌,0.6,��
2017/10/27,17:50,0.903,1.438,0.902,1.711,1.166,0.499,0.908,0.844,-,CALM,��
2017/10/27,18:00,0.901,1.440,0.904,1.713,1.168,0.499,0.908,0.844,-,CALM,��
2017/10/27,18:10,0.902,1.436,0.902,1.712,1.167,0.501,0.908,0.845,��,0.6,��
2017/10/27,18:20,0.902,1.438,0.902,1.712,1.168,0.499,0.909,0.844,-,CALM,��
2017/10/27,18:30,0.900,1.435,0.902,1.708,1.167,0.500,0.908,0.844,���k��,0.8,��
2017/10/27,18:40,0.903,1.436,0.905,1.712,1.165,0.499,0.910,0.844,���k��,1.2,��
2017/10/27,18:50,0.901,1.436,0.903,1.712,1.165,0.499,0.909,0.843,�k�k��,1.5,��
2017/10/27,19:00,0.903,1.439,0.902,1.712,1.168,0.499,0.909,0.844,�k�k��,0.9,��
2017/10/27,19:10,0.901,1.436,0.902,1.713,1.167,0.501,0.908,0.844,�k��,1.2,��
2017/10/27,19:20,0.902,1.438,0.903,1.715,1.168,0.500,0.908,0.843,�k��,1.2,��
2017/10/27,19:30,0.901,1.436,0.901,1.710,1.166,0.500,0.907,0.844,�k�k��,1.5,��
2017/10/27,19:40,0.901,1.438,0.902,1.711,1.166,0.499,0.907,0.844,�k�k��,1.9,��
2017/10/27,19:50,0.901,1.440,0.903,1.711,1.168,0.498,0.908,0.843,�k�k��,2.0,��
2017/10/27,20:00,0.902,1.439,0.902,1.713,1.167,0.498,0.907,0.845,�k�k��,2.0,��
2017/10/27,20:10,0.902,1.437,0.904,1.713,1.164,0.497,0.909,0.843,�k��,2.2,��
2017/10/27,20:20,0.902,1.438,0.903,1.710,1.166,0.500,0.908,0.844,�k�k��,2.0,��
2017/10/27,20:30,0.902,1.437,0.902,1.715,1.166,0.500,0.909,0.844,�k�k��,2.3,��
2017/10/27,20:40,0.900,1.437,0.903,1.711,1.166,0.499,0.908,0.842,�k�k��,2.2,��
2017/10/27,20:50,0.903,1.435,0.902,1.711,1.166,0.500,0.907,0.841,�k�k��,2.3,��
2017/10/27,21:00,0.900,1.435,0.904,1.710,1.167,0.497,0.908,0.843,�k�k��,2.0,��
2017/10/27,21:10,0.899,1.439,0.902,1.711,1.170,0.498,0.909,0.843,�k�k��,2.3,��
2017/10/27,21:20,0.902,1.436,0.903,1.714,1.165,0.498,0.906,0.843,�k�k��,2.0,��
2017/10/27,21:30,0.900,1.438,0.903,1.713,1.167,0.498,0.906,0.843,�k,1.7,��
2017/10/27,21:40,0.902,1.437,0.903,1.712,1.167,0.499,0.908,0.843,�k,2.3,��
2017/10/27,21:50,0.900,1.437,0.902,1.710,1.167,0.500,0.909,0.844,�k,2.3,��
2017/10/27,22:00,0.903,1.440,0.903,1.713,1.168,0.497,0.908,0.844,�k,2.5,��
2017/10/27,22:10,0.901,1.439,0.900,1.710,1.164,0.499,0.908,0.843,�k,2.3,��
2017/10/27,22:20,0.901,1.436,0.903,1.712,1.167,0.498,0.908,0.843,�k,2.3,��
2017/10/27,22:30,0.901,1.435,0.903,1.714,1.169,0.499,0.908,0.843,�k�k��,2.9,��
2017/10/27,22:40,0.900,1.438,0.902,1.713,1.164,0.498,0.907,0.843,�k,2.6,��
2017/10/27,22:50,0.899,1.436,0.902,1.709,1.166,0.498,0.907,0.844,�k�k��,3.1,��
2017/10/27,23:00,0.902,1.436,0.902,1.711,1.166,0.498,0.906,0.844,�k,3.1,��
2017/10/27,23:10,0.900,1.437,0.901,1.713,1.167,0.497,0.907,0.842,�k�k��,2.9,��
2017/10/27,23:20,0.901,1.434,0.902,1.710,1.164,0.497,0.907,0.844,�k,2.9,��
2017/10/27,23:30,0.901,1.435,0.902,1.709,1.167,0.499,0.907,0.844,�k,3.6,��
2017/10/27,23:40,0.901,1.433,0.903,1.713,1.164,0.499,0.906,0.844,�k,3.2,��
2017/10/27,23:50,0.902,1.436,0.903,1.711,1.164,0.498,0.907,0.842,�k,3.5,��
